Location: Bad Salzschlirf
(50.3750°N, 9.3000°E)
Time: 06:22:22
(UTC+02:00)

ISS - Pass Details

Date: 14 October 2018
Orbit: 403 x 408 km, 51.6° (Epoch: 21 October)

Event Time Altitude Azimuth Distance (km) Brightness Sun altitude
Rises 19:03:07 0° 279° (W) 2,337 1.9 -5.5°
Reaches altitude 10° 19:06:20 10° 245° (WSW) 1,470 0.4 -6.0°
Maximum altitude 19:07:32 12° 224° (SW) 1,375 -0.3 -6.2°
Drops below altitude 10° 19:08:45 10° 202° (SSW) 1,466 -0.6 -6.4°
Sets 19:11:57 0° 168° (SSE) 2,320 -0.1 -6.9°
